Weather History for Tulsa, OK

Change the Weather History Date:

Thursday, August 22, 2013

  Actual Average Record
Temperature  
Mean Temperature 84 °F 82 °F  
Max Temperature 93 °F 93 °F 106 °F (1936)
Min Temperature 74 °F 71 °F 50 °F (1920)
Cooling Degree Days 19 17  
Month to date cooling degree days 318 395  
Year to date cooling degree days 1451 1563  
Since 1 June cooling degree days 1259 1329  
Growing Degree Days 33 (Base 50)    
Moisture  
Dew Point 68 °F    
Average Humidity 62    
Maximum Humidity 79    
Minimum Humidity 44    
Precipitation  
Precipitation 0.00 in 0.09 in 1.14 in (1971)
Month to date precipitation 2.88 1.97  
Year to date precipitation 23.38 26.55  
Sea Level Pressure  
Sea Level Pressure 30.01 in    
Wind  
Wind Speed 8 mph (SSE)    
Max Wind Speed 13 mph    
Max Gust Speed 18 mph    
Visibility 10 miles    
Events      
T = Trace of Precipitation, MM = Missing Value Source: NWS Daily Summary

Daily Weather History Graph

Daily Weather History Graph

Search for Another Location

Airport:

Trip Planner

Search our weather history database for the weather conditions in past years. The results will help you decide how hot, cold, wet, or windy it might be!

Date:

Astronomy

Aug. 22, 2013 Rise Set
Actual Time 6:47 AM CDT 8:04 PM CDT
Civil Twilight 6:20 AM CDT 8:31 PM CDT
Nautical Twilight 5:48 AM CDT 9:03 PM CDT
Astronomical Twilight 5:15 AM CDT 9:36 PM CDT
Moon 8:55 PM CDT (8/22) 8:32 AM CDT (8/22)
Length of Visible Light 14h 10m
Length of Day
13h 17m
Waning Gibbous, 96% of the Moon is Illuminated
Aug 22
Waning Gibbous
Aug 28
Last Quarter
Sep 5
New
Sep 12
First Quarter
Sep 19
Full

Hourly Weather History & Observations

Time (CDT) Temp. Heat Index Dew Point Humidity Pressure Visibility Wind Dir Wind Speed Gust Speed Precip Events Conditions
12:53 AM 80.1 °F 82.3 °F 66.9 °F 64% 30.01 in 10.0 mi SSE 9.2 mph - N/A   Clear
1:53 AM 79.0 °F - 68.0 °F 69% 30.01 in 10.0 mi SSE 10.4 mph - N/A   Clear
2:53 AM 78.1 °F - 66.9 °F 68% 30.02 in 10.0 mi SSE 9.2 mph - N/A   Clear
3:53 AM 75.9 °F - 66.9 °F 74% 30.01 in 10.0 mi SSE 6.9 mph - N/A   Clear
4:53 AM 75.9 °F - 68.0 °F 76% 30.01 in 10.0 mi SSE 9.2 mph - N/A   Clear
5:53 AM 75.0 °F - 66.9 °F 76% 30.02 in 10.0 mi SSE 8.1 mph - N/A   Clear
6:53 AM 73.9 °F - 66.9 °F 79% 30.04 in 10.0 mi SSE 8.1 mph - N/A   Mostly Cloudy
7:53 AM 75.0 °F - 66.9 °F 76% 30.06 in 10.0 mi South 5.8 mph - N/A   Mostly Cloudy
8:53 AM 78.1 °F - 66.9 °F 68% 30.07 in 10.0 mi South 6.9 mph - N/A   Overcast
9:53 AM 82.0 °F 84.9 °F 68.0 °F 62% 30.07 in 10.0 mi SSW 4.6 mph - N/A   Overcast
10:53 AM 84.9 °F 88.8 °F 69.1 °F 59% 30.06 in 10.0 mi South 10.4 mph - N/A   Overcast
11:53 AM 87.1 °F 92.0 °F 70.0 °F 57% 30.04 in 10.0 mi South 9.2 mph - N/A   Overcast
12:53 PM 89.1 °F 94.1 °F 70.0 °F 53% 30.03 in 10.0 mi South 9.2 mph - N/A   Overcast
1:53 PM 90.0 °F 94.5 °F 69.1 °F 50% 30.01 in 10.0 mi South 5.8 mph - N/A   Overcast
2:53 PM 91.9 °F 95.9 °F 68.0 °F 45% 30.00 in 10.0 mi SSE 8.1 mph - N/A   Overcast
3:53 PM 91.9 °F 95.9 °F 68.0 °F 45% 29.99 in 10.0 mi SE 5.8 mph - N/A   Mostly Cloudy
4:53 PM 91.0 °F 94.3 °F 66.9 °F 45% 29.98 in 10.0 mi East 6.9 mph - N/A   Mostly Cloudy
5:53 PM 91.0 °F 93.8 °F 66.0 °F 44% 29.96 in 10.0 mi SE 9.2 mph - N/A   Mostly Cloudy
6:53 PM 89.1 °F 92.9 °F 68.0 °F 50% 29.96 in 10.0 mi ESE 8.1 mph - N/A   Mostly Cloudy
7:53 PM 84.9 °F 88.8 °F 69.1 °F 59% 29.96 in 10.0 mi ESE 5.8 mph - N/A   Mostly Cloudy
8:53 PM 81.0 °F 83.8 °F 68.0 °F 65% 29.97 in 10.0 mi ESE 6.9 mph - N/A   Mostly Cloudy
9:53 PM 79.0 °F - 69.1 °F 72% 29.99 in 10.0 mi ESE 5.8 mph - N/A   Mostly Cloudy
10:53 PM 78.1 °F - 70.0 °F 76% 30.00 in 10.0 mi ESE 5.8 mph - N/A   Mostly Cloudy
11:53 PM 78.1 °F - 71.1 °F 79% 30.00 in 10.0 mi ESE 6.9 mph - N/A   Clear